TITAN 3C TRANSTAGE DEB, 1959

Orbit data source: Space-Track

TITAN 3C TRANSTAGE DEB, 1959 is space debris in LEO originally from a launch on Fri, 15 Oct 1965 UTC launched from the Air Force Eastern Test Range (AFETR). Debris objects in space refer to the collection of defunct objects orbiting the Earth. Examples of debris include non-operational satellites, rocket bodies, and fragments generated from explosions, collisions, or faulty payload assembly.

Loading next visibility...
Identifier
1959, 1965-082GU
Orbit
LEO
Country
Flag of USUS
Related business
Manufacturer
Unknown
Mission
Spacecraft
Bus & Motor
Unknown
Mass
Unknown
Launch date (UTC)
1965-10-15 (60 years ago)
Launch vehicle
Unknown
Launch site
Air Force Eastern Test Range (AFETR)
Object type
Payload
Rocket body
Debris
Shape & HBR
Unknown shape, 0.2 m
Radar Cross Section
Small (<0.1 m²)

Expand to show TLE details & history
Last TLE update: 8 hours ago

TLE from 8 hours ago
0 TITAN 3C TRANSTAGE DEB
1 01959U 65082GU  25355.23803749  .00000535  00000-0  10041-3 0  9993
2 01959  31.7914 341.6940 0062159  64.7022 296.0040 14.58829575187755
Epoch: 2025-12-21T05:42Z
TLE epoch observation values (Epoch: 2025-12-21T05:42:46.439Z)
Latitude
Longitude
165.94715°
Altitude
676.52 km
Speed
7.531 km/s
True Right ascension
22h 46m 46s
True Declination
0° 00' 00"
Sunlit
Object was in daylight at epoch
Visualization orbit readout
Latitude
Unknown
Longitude
Unknown
Altitude
Unknown
Speed
Unknown
Apparent Right ascension
Unknown
Apparent Declination
Unknown
Sunlit
N/A
Visualization observer readout
Local Sidereal Time
13:07:34
Azimuth
Unknown
Elevation
Unknown
Doppler factor
Unknown
Orbital elements
Apogee altitude
744.596 km
Perigee altitude
656.594 km
Semi-major axis
7,078.732 km
Eccentricity
0.00622
Inclination
31.7914°
RAAN
341.694°
Arg. of periapsis
64.7022°
True anomaly
295.36165°
Mean anomaly
296.004°
Eccentric anomaly
295.68304°
Mean motion
3.64427 °/min
Orbital period
98.79 mins
BSTAR
0.00010041

Documentation

Showing up to 5 results
|